Location: Mountain Grove
(34.0887°N, 86.6172°W)
Time: 00:55:25
(UTC+00:00)

Cosmos 44 - Pass Details

Date: 14 July 2020
Orbit: 586 x 776 km, 65.1° (Epoch: 12 August)

Event Time Altitude Azimuth Distance (km) Brightness Sun altitude
Rises 02:42:12 0° 212° (SSW) 2,799 6.3 -18.2°
Reaches altitude 10° 02:44:26 10° 215° (SW) 1,900 5.5 -18.6°
Maximum altitude 02:48:40 71° 299° (WNW) 625 3.2 -19.2°
Drops below altitude 10° 02:53:01 10° 24° (NNE) 1,943 5.9 -19.8°
Sets 02:55:19 0° 26° (NNE) 2,869 6.7 -20.2°
